SKYTERRA 1

Last updated on Sun Apr 12 2026 00:02:52 GMT+0000 (Coordinated Universal Time)

1 37218U 10061A 26101.42933492 -.00000113 00000+0 00000+0 0 9999 2 37218 4.9837 50.8779 0002699 13.6570 188.3543 1.00271979 56524
UTC large
Height (km)
Speed (km/s)
/
Latitude / Longitude
Inclination (degrees)
Orbital Period (minutes)
Azimuth
Elevation
Range (km)
Doppler Factor

Next 0 passes for location: London (51.5072 / 0.1276)

Sorry there are no passes over London.
SKYTERRA 1